EW2323 Weather Reports


Display with metric or nautical units.
time (UTC)temp
F
wind
direction
speed
MPH
gust
MPH
rain 1hr
in
rain 24hr
in
rain mn
in
humidity
%
barometer
mb
20260504024555 52 164 0.0 0.0 0.00 0.25 0.25 72 1013.9
20260504023102 53 164 0.0 0.0 0.00 0.25 0.25 71 1013.9
20260504021553 53 164 0.0 0.0 0.00 0.25 0.25 70 1014.1
20260504020058 54 164 0.0 0.0 0.00 0.25 0.25 68 1014.0
20260504014552 55 164 0.0 0.0 0.01 0.25 0.25 67 1013.9
20260504013104 56 164 0.0 0.0 0.04 0.25 0.25 66 1014.0
20260504011551 57 164 0.0 0.0 0.04 0.25 0.25 62 1014.0
20260504010058 58 164 0.0 0.0 0.04 0.25 0.25 60 1013.5
20260504004605 60 164 0.0 0.0 0.03 0.24 0.24 58 1013.5
20260504003048 61 162 0.0 0.0 0.00 0.21 0.21 53 1013.4
20260504001553 61 236 0.0 2.0 0.00 0.21 0.21 51 1013.2
20260504000047 62 208 0.0 3.0 0.00 0.21 0.21 50 1013.1
20260503234548 62 169 0.0 11.0 0.00 0.21 0.21 48 1013.2
20260503233049 63 158 0.0 4.0 0.00 0.21 0.21 49 1013.1
20260503231545 63 246 0.0 7.0 0.00 0.21 0.21 48 1013.3
20260503230044 63 230 0.0 6.0 0.00 0.21 0.21 48 1013.6
20260503224540 63 242 0.0 4.0 0.00 0.21 0.21 48 1013.9
20260503223038 63 213 0.0 6.0 0.00 0.21 0.21 46 1014.1
20260503221543 63 122 0.0 4.0 0.00 0.21 0.21 46 1014.4
20260503220037 63 235 0.0 8.0 0.08 0.21 0.21 45 1014.3
20260503214535 63 340 1.0 7.0 0.14 0.21 0.21 44 1015.0
20260503213046 63 282 1.0 11.0 0.18 0.21 0.21 44 1015.2
20260503211533 63 140 0.0 7.0 0.21 0.21 0.21 44 1015.3
20260503210032 63 158 1.0 10.0 0.13 0.13 0.13 44 1014.9
20260503204544 63 243 2.0 16.0 0.07 0.07 0.07 43 1015.6
20260503203027 64 299 0.0 3.0 0.03 0.03 0.03 45 1015.8
20260503201526 66 221 0.0 7.0 0.00 0.00 0.00 40 1016.1
20260503200024 66 292 1.0 9.0 0.00 0.00 0.00 38 1016.3
20260503194524 65 237 0.0 7.0 0.00 0.00 0.00 41 1016.8
20260503193027 65 239 0.0 7.0 0.00 0.00 0.00 41 1017.4
20260503191516 65 126 3.0 9.0 0.00 0.00 0.00 38 1017.5
20260503190013 65 198 1.0 7.0 0.00 0.00 0.00 39 1017.7
20260503184529 65 104 0.0 5.0 0.00 0.00 0.00 38 1017.9
20260503183008 65 147 0.0 5.0 0.00 0.00 0.00 39 1018.3
20260503181507 64 309 0.0 4.0 0.00 0.00 0.00 42 1018.6
20260503180017 64 270 1.0 4.0 0.00 0.00 0.00 39 1018.7
20260503174502 63 274 0.0 10.0 0.00 0.00 0.00 41 1018.9
20260503173119 63 133 1.0 4.0 0.00 0.00 0.00 39 1019.1
20260503171557 62 163 1.0 12.0 0.00 0.00 0.00 42 1019.4
20260503081538 0 0.0 0.0 0.00 0.00 0.00 1019.8
20260503071521 0 0.0 0.0 0.00 0.00 0.00 1019.5
20260503054555 0 0.0 0.0 0.00 0.00 0.00 1019.8
20260503053052 42 351 0.0 0.0 0.00 0.00 0.00 79 1019.8
20260503051552 43 351 0.0 0.0 0.00 0.00 0.00 75 1019.7
20260503050046 44 351 0.0 0.0 0.00 0.00 0.00 73 1019.8
20260503044544 44 351 0.0 0.0 0.00 0.00 0.00 71 1019.8
20260503043042 45 351 0.0 0.0 0.00 0.00 0.00 69 1019.8
20260503041537 46 351 0.0 0.0 0.00 0.00 0.00 69 1019.7
20260503040045 47 351 0.0 0.0 0.00 0.00 0.00 66 1019.7
20260503034545 48 351 0.0 0.0 0.00 0.00 0.00 62 1019.6
20260503033039 49 351 0.0 0.0 0.00 0.00 0.00 60 1019.5
20260503031537 49 351 0.0 3.0 0.00 0.00 0.00 58 1019.4
20260503030033 50 351 0.0 0.0 0.00 0.00 0.00 59 1019.4